Glasgow, MT

8:49 AM MST on January 24, 2017 (GMT -0700)
Wokal-Glasgow International

Weather History for KGGW - May, 2013

Change the Weather History Date:

Sunday, May 26, 2013

  Actual Average Record
Temperature  
Mean Temperature 63 °F 58 °F  
Max Temperature 77 °F 71 °F 99 °F (1934)
Min Temperature 48 °F 46 °F 27 °F (1904)
Degree Days  
Heating Degree Days 2 8  
Month to date heating degree days 198 290  
Since 1 July heating degree days 8457 8297  
Cooling Degree Days 0 1  
Month to date cooling degree days 9 6  
Year to date cooling degree days 9 7  
Growing Degree Days 16 (Base 50)    
Moisture  
Dew Point 53 °F    
Average Humidity 70    
Maximum Humidity 100    
Minimum Humidity 40    
Precipitation  
Precipitation 0.37 in 0.07 in 1.34 in (1915)
Month to date precipitation 2.29 1.51  
Year to date precipitation 5.10 3.41  
Snow  
Snow 0.00 in 0.00 in T in (1965)
Month to date snowfall 0.0 1.2  
Since 1 July snowfall 62.3 34.8  
Snow Depth 0.00 in    
Sea Level Pressure  
Sea Level Pressure 29.89 in    
Wind  
Wind Speed 8 mph (ENE)    
Max Wind Speed 28 mph    
Max Gust Speed 36 mph    
Visibility 9 miles    
Events Rain , Thunderstorm    
T = Trace of Precipitation, MM = Missing Value Source: NWS Daily Summary

Daily Weather History Graph

Daily Weather History Graph

Search for Another Location

Airport or City:

Trip Planner

Search our weather history database for the weather conditions in past years. The results will help you decide how hot, cold, wet, or windy it might be!

Date:

Astronomy

May. 26, 2013 Rise Set
Actual Time 5:14 AM MDT 8:53 PM MDT
Civil Twilight 4:35 AM MDT 9:32 PM MDT
Nautical Twilight 3:42 AM MDT 10:25 PM MDT
Astronomical Twilight 2:29 AM MDT 11:40 PM MDT
Moon 10:40 PM MDT (5/26) 6:48 AM MDT (5/26)
Length of Visible Light 16h 57m
Length of Day
15h 38m
Waning Gibbous, 96% of the Moon is Illuminated
May 26
Waning Gibbous
May 31
Last Quarter
Jun 8
New
Jun 16
First Quarter
Jun 23
Full

Hourly Weather History & Observations

Time (MDT) Temp. Dew Point Humidity Pressure Visibility Wind Dir Wind Speed Gust Speed Precip Events Conditions
12:53 AM 57.0 °F 54.0 °F 89% 29.88 in 10.0 mi East 16.1 mph - N/A   Clear
1:53 AM 55.0 °F 52.0 °F 89% 29.89 in 10.0 mi East 9.2 mph - N/A   Clear
2:53 AM 52.0 °F 51.1 °F 97% 29.88 in 10.0 mi East 5.8 mph - N/A   Clear
3:53 AM 52.0 °F 50.0 °F 93% 29.88 in 10.0 mi ENE 6.9 mph - N/A   Clear
4:53 AM 50.0 °F 48.9 °F 96% 29.91 in 7.0 mi Calm Calm - N/A   Clear
5:53 AM 50.0 °F 48.9 °F 96% 29.93 in 6.0 mi Calm Calm - N/A   Scattered Clouds
6:04 AM 51.8 °F 50.0 °F 94% 29.94 in 5.0 mi NNE 4.6 mph - N/A   Mostly Cloudy
6:53 AM 57.0 °F 54.0 °F 89% 29.94 in 10.0 mi East 3.5 mph - N/A   Mostly Cloudy
7:08 AM 57.2 °F 53.6 °F 88% 29.94 in 10.0 mi East 5.8 mph - N/A   Scattered Clouds
7:53 AM 57.9 °F 54.0 °F 87% 29.95 in 10.0 mi SE 4.6 mph - N/A   Mostly Cloudy
8:05 AM 57.2 °F 53.6 °F 88% 29.94 in 10.0 mi ESE 4.6 mph - N/A   Overcast
8:49 AM 60.8 °F 55.4 °F 82% 29.94 in 10.0 mi ESE 10.4 mph - N/A   Scattered Clouds
8:53 AM 60.1 °F 55.0 °F 83% 29.94 in 10.0 mi ESE 9.2 mph - N/A   Partly Cloudy
9:34 AM 60.8 °F 55.4 °F 82% 29.95 in 10.0 mi SE 8.1 mph - N/A   Mostly Cloudy
9:53 AM 62.1 °F 55.9 °F 80% 29.94 in 10.0 mi SE 6.9 mph - N/A   Mostly Cloudy
10:53 AM 64.0 °F 55.0 °F 73% 29.95 in 10.0 mi Variable 5.8 mph - N/A   Mostly Cloudy
11:10 AM 64.4 °F 55.4 °F 73% 29.95 in 10.0 mi SE 6.9 mph - N/A   Scattered Clouds
11:53 AM 69.1 °F 55.0 °F 61% 29.93 in 10.0 mi NNE 5.8 mph - N/A   Clear
12:53 PM 71.1 °F 55.0 °F 57% 29.91 in 10.0 mi NE 5.8 mph - N/A   Clear
1:53 PM 73.0 °F 53.1 °F 49% 29.89 in 10.0 mi NNE 6.9 mph - N/A   Clear
2:53 PM 75.0 °F 51.1 °F 43% 29.87 in 10.0 mi NNE 6.9 mph - N/A   Clear
3:53 PM 77.0 °F 52.0 °F 42% 29.85 in 10.0 mi NE 5.8 mph - N/A   Clear
4:53 PM 75.9 °F 50.0 °F 40% 29.83 in 10.0 mi East 8.1 mph - N/A   Clear
5:53 PM 73.9 °F 48.9 °F 41% 29.80 in 10.0 mi ENE 6.9 mph - N/A   Clear
6:53 PM 70.0 °F 57.0 °F 63% 29.81 in 10.0 mi SE 5.8 mph - N/A   Scattered Clouds
7:28 PM 69.8 °F 55.4 °F 60% 29.81 in 10.0 mi ESE 6.9 mph - N/A Thunderstorm Thunderstorm
7:53 PM 69.1 °F 55.0 °F 61% 29.80 in 10.0 mi ESE 9.2 mph - N/A Thunderstorm Overcast
8:32 PM 60.8 °F 55.4 °F 82% 29.85 in 10.0 mi NW 19.6 mph 28.8 mph 0.01 in Rain , Thunderstorm Light Thunderstorms and Rain
8:53 PM 59.0 °F 55.0 °F 87% 29.86 in 3.0 mi NW 15.0 mph 23.0 mph 0.02 in Rain , Thunderstorm Light Thunderstorms and Rain
9:44 PM 57.2 °F 55.4 °F 94% 29.87 in 2.5 mi North 20.7 mph - 0.25 in Rain , Thunderstorm Heavy Thunderstorms and Rain
9:53 PM 57.0 °F 55.0 °F 93% 29.85 in 4.0 mi North 25.3 mph - 0.27 in Rain , Thunderstorm Thunderstorms and Rain
10:32 PM 57.2 °F 53.6 °F 88% 29.88 in 10.0 mi NNW 11.5 mph - 0.02 in   Overcast
10:53 PM 55.9 °F 54.0 °F 93% 29.84 in 10.0 mi North 12.7 mph - 0.02 in   Mostly Cloudy
11:53 PM 57.0 °F 53.1 °F 87% 29.83 in 10.0 mi NNE 15.0 mph - N/A   Mostly Cloudy